TimeCDT,TemperatureF,Dew PointF,Humidity,Sea Level PressureIn,VisibilityMPH,Wind Direction,Wind SpeedMPH,Gust SpeedMPH,PrecipitationIn,Events,Conditions,WindDirDegrees,DateUTC
12:52 AM,66.0,55.9,70,30.21,10.0,SSE,5.8,-,N/A,,Clear,160,2013-08-25 05:52:00
1:52 AM,64.9,55.0,70,30.22,10.0,South,4.6,-,N/A,,Clear,170,2013-08-25 06:52:00
2:52 AM,64.9,55.9,73,30.22,10.0,South,4.6,-,N/A,,Clear,180,2013-08-25 07:52:00
3:52 AM,64.0,55.9,75,30.22,10.0,South,6.9,-,N/A,,Clear,170,2013-08-25 08:52:00
4:52 AM,64.0,55.9,75,30.22,10.0,South,4.6,-,N/A,,Clear,180,2013-08-25 09:52:00
5:52 AM,63.0,55.9,78,30.23,10.0,South,4.6,-,N/A,,Clear,180,2013-08-25 10:52:00
6:52 AM,64.0,57.0,78,30.25,10.0,South,3.5,-,N/A,,Clear,180,2013-08-25 11:52:00
7:52 AM,68.0,60.1,76,30.26,10.0,SSW,3.5,-,N/A,,Clear,200,2013-08-25 12:52:00
8:52 AM,73.9,60.1,62,30.25,10.0,SSW,8.1,-,N/A,,Clear,210,2013-08-25 13:52:00
9:52 AM,78.1,64.0,62,30.24,10.0,SSW,11.5,-,N/A,,Clear,210,2013-08-25 14:52:00
10:52 AM,81.0,64.9,58,30.24,10.0,WSW,9.2,-,N/A,,Clear,240,2013-08-25 15:52:00
11:52 AM,82.9,66.9,58,30.23,10.0,WSW,11.5,-,N/A,,Clear,250,2013-08-25 16:52:00
12:52 PM,84.9,68.0,57,30.21,10.0,SW,12.7,-,N/A,,Clear,230,2013-08-25 17:52:00
1:52 PM,84.9,69.1,59,30.20,10.0,WSW,11.5,18.4,N/A,,Clear,240,2013-08-25 18:52:00
2:52 PM,86.0,70.0,59,30.18,10.0,SW,12.7,-,N/A,,Clear,230,2013-08-25 19:52:00
3:52 PM,87.1,70.0,57,30.17,10.0,SW,13.8,-,N/A,,Clear,230,2013-08-25 20:52:00
4:52 PM,86.0,70.0,59,30.15,10.0,SW,12.7,17.3,N/A,,Clear,220,2013-08-25 21:52:00
5:52 PM,84.0,69.1,61,30.15,10.0,SSW,11.5,-,N/A,,Clear,200,2013-08-25 22:52:00
6:52 PM,82.0,68.0,62,30.14,10.0,SSW,13.8,-,N/A,,Clear,210,2013-08-25 23:52:00
7:52 PM,77.0,68.0,74,30.15,10.0,SSW,5.8,-,N/A,,Clear,200,2013-08-26 00:52:00
8:52 PM,73.9,66.9,79,30.16,10.0,South,5.8,-,N/A,,Clear,170,2013-08-26 01:52:00
9:52 PM,72.0,66.0,81,30.17,10.0,South,5.8,-,N/A,,Clear,180,2013-08-26 02:52:00
10:52 PM,73.0,66.0,79,30.17,10.0,SSW,6.9,-,N/A,,Clear,200,2013-08-26 03:52:00
11:52 PM,71.1,64.9,81,30.16,10.0,SSW,6.9,-,N/A,,Clear,200,2013-08-26 04:52:00